Voltar ao catálogo

ONEWEB-0613

AtivoComunicaçõesPO
NORAD 56071·PAYLOAD·🇬🇧 United Kingdom

Lançado Mar 26, 2023 de Satish Dhawan Space Centre

Loading…

Próximas Passagens (próximas 24 horas)

TLE

AtualizadoSource: CelesTrak SupGP

Época: Sep 14, 2026, 18:46 UTC

1 56071C 23043AB  26257.78213380  .00001979  00000+0  52639-2 0  2574
2 56071  87.8984 241.3559 0002023  78.0969 318.0254 13.15547017    18

Acompanhe ONEWEB-0613 em tempo real com AllMySat

Download on the App Store